Theta_e
295 290 288 292 292 293 291 289 288 291 296 292 290 291 293 294 293 292 292 292 292 292 293 295 295 295 296 295 297 296 296 296 297 296 294 293 290 291 290 291 291 291 291 290
292 288 295 297 295 293 292 289 289 292 295 292 291 291 294 294 294 295 295 293 292 290 292 293 293 293 295 296 296 297 296 297 297 296 294 292 290 289 289 289 288 288 288 288
289 293 298 295 293 292 291 290 290 291 293 291 290 288 290 294 294 294 296 295 293 291 292 292 292 291 292 295 296 296 296 295 294 293 291 290 289 289 287 287 286 286 287 286
293 297 295 293 292 293 289 293 293 292 288 284 290 284 289 291 292 293 296 292 291 290 293 292 291 290 291 295 296 295 294 293 293 292 290 289 287 285 285 285 285 285 286 285
292 292 292 293 293 294 291 294 292 291 287 285 285 283 286 292 292 292 294 289 289 290 292 291 291 291 293 294 294 293 293 293 293 292 290 288 286 285 285 284 283 284 284 285
292 295 293 293 293 294 294 291 291 288 286 280 285 285 289 291 293 295 292 289 289 289 290 290 290 291 291 291 292 293 292 291 290 290 289 287 285 284 284 283 282 282 283 283
290 292 293 294 290 291 291 287 280 278 278 280 287 284 289 293 293 294 291 290 289 289 289 288 287 288 289 289 289 289 289 288 288 288 287 287 286 285 284 283 282 282 281 281
284 284 291 293 292 289 288 288 282 275 277 279 283 281 287 290 290 292 292 291 289 288 288 286 286 287 288 288 288 288 288 287 286 286 285 286 286 285 284 283 282 281 281 281
286 287 292 292 293 294 287 285 291 284 280 277 283 285 290 288 287 288 288 288 287 286 285 285 285 285 287 287 287 287 287 286 286 286 286 285 285 284 282 282 282 281 280 281
294 287 289 289 294 292 290 292 284 287 277 276 280 281 286 286 286 286 286 286 285 284 284 284 284 284 285 287 286 286 286 285 285 285 285 284 283 283 282 281 280 279 279 279
292 292 287 289 287 287 288 287 289 289 285 278 275 281 288 289 288 287 287 287 286 283 283 283 284 285 285 284 285 284 284 284 284 285 284 283 282 281 281 280 278 278 278 277
293 293 286 289 290 292 294 291 291 285 280 283 280 284 288 288 289 289 288 288 286 284 284 283 284 284 284 284 284 284 284 284 284 284 283 281 281 279 279 278 277 277 276 276
295 288 283 285 289 291 288 290 293 292 287 284 281 285 288 289 288 288 287 287 286 284 283 283 283 284 284 283 283 284 284 283 284 283 281 280 279 278 277 277 277 277 276 275
298 286 287 284 284 286 282 285 291 290 285 285 286 288 286 285 287 286 286 287 286 284 283 282 282 283 283 283 283 283 283 284 283 282 280 278 277 277 277 277 276 276 276 274
295 286 287 290 290 288 284 284 288 288 288 284 288 288 292 290 288 290 288 287 286 284 283 282 282 282 283 283 283 283 283 283 283 281 279 278 277 277 277 276 276 276 275 275
292 287 286 286 289 289 287 289 289 288 289 288 289 288 295 292 291 290 289 288 286 285 284 284 283 283 283 283 283 283 283 283 283 280 279 278 278 277 277 276 276 275 275 274
287 287 285 283 287 286 283 287 289 290 292 290 285 290 294 291 292 291 289 288 287 287 286 285 284 283 283 284 284 283 283 283 282 280 279 278 278 277 276 275 275 274 273 273
284 285 284 281 279 277 285 284 291 290 292 293 292 292 288 293 295 292 292 291 289 289 288 287 285 285 284 285 285 284 283 283 282 280 279 278 277 276 275 274 274 273 272 271
287 285 283 278 278 281 283 281 282 284 285 291 292 294 288 286 288 288 291 293 292 291 291 289 288 287 285 284 285 284 282 282 281 279 278 277 277 275 274 273 272 272 271 270
283 283 283 279 277 273 279 280 283 285 278 284 288 291 285 287 284 289 289 290 290 291 291 290 288 287 285 284 284 282 281 281 280 279 278 278 277 276 274 273 272 271 270 270
277 278 278 280 278 279 283 282 282 279 281 280 284 285 284 284 285 285 286 285 286 287 288 287 286 285 284 283 282 281 281 280 281 280 278 276 276 275 274 272 270 269 268 268
277 277 277 279 277 274 280 280 283 284 279 280 284 285 285 283 281 281 281 282 283 283 282 283 282 281 281 282 282 280 279 280 279 278 276 275 275 274 272 270 268 267 265 262
275 279 275 278 278 280 279 281 282 281 280 280 281 283 284 281 280 280 279 279 280 281 280 280 279 278 278 281 282 279 279 277 276 275 275 274 272 271 269 267 265 263 262 263
275 278 280 280 282 280 281 281 280 281 280 280 280 281 282 281 279 279 279 279 279 279 278 276 277 276 275 276 278 278 276 275 274 274 273 270 269 266 265 266 265 264 263 263
277 278 274 275 280 279 280 280 281 281 280 279 279 280 280 280 277 279 278 277 278 278 276 276 276 276 275 275 275 274 274 275 274 271 268 268 267 266 264 265 265 265 265 265
276 277 276 276 281 282 282 281 282 280 279 279 278 277 279 280 279 278 277 278 277 276 275 274 273 272 272 272 271 270 271 273 270 268 267 267 266 264 265 264 262 271 271 272
Wind_Speed
3 4 9 15 9 6 4 4 5 7 4 6 10 8 12 11 8 9 10 11 12 11 8 9 7 7 7 6 9 9 11 8 7 7 9 8 8 9 10 9 12 11 11 11
2 10 14 5 8 9 8 8 12 7 5 5 8 15 12 9 14 15 19 15 14 10 11 10 9 6 5 7 9 10 10 9 6 5 6 6 8 9 9 9 10 10 11 10
9 8 10 9 7 6 7 12 6 10 5 4 6 11 10 9 11 10 15 10 14 19 16 11 11 8 8 9 10 11 10 9 9 11 11 11 11 9 9 9 7 8 10 10
10 10 4 5 7 10 13 5 7 6 2 7 6 19 8 7 13 13 20 14 17 15 13 12 12 9 9 10 9 10 12 13 12 12 11 13 11 12 7 7 7 8 9 10
9 5 9 14 7 8 5 3 3 4 5 3 2 7 3 7 12 11 15 9 15 16 16 15 14 12 10 12 11 9 12 11 11 10 11 11 14 11 9 9 11 9 8 9
5 3 3 6 2 7 8 6 6 4 3 10 9 10 32 13 16 12 7 9 15 15 13 13 12 12 11 10 10 11 11 10 12 12 12 14 17 15 12 9 9 7 6 6
2 11 3 4 4 3 4 8 2 4 1 11 9 10 21 10 5 9 14 16 15 16 15 16 16 13 13 13 11 10 14 13 13 14 12 13 14 14 15 12 9 10 7 6
5 6 12 9 13 11 8 11 8 8 5 4 4 12 9 4 5 5 12 16 16 16 14 16 14 13 14 13 13 12 13 12 12 12 11 10 13 9 9 10 9 7 7 7
6 6 4 2 3 12 6 10 8 2 2 2 7 9 8 3 1 5 11 14 15 14 15 15 14 11 12 13 12 12 13 12 13 13 12 11 11 11 11 11 9 8 8 7
4 5 4 2 4 2 7 7 4 4 5 8 6 8 12 7 9 7 10 13 13 13 15 15 14 13 12 13 11 12 13 14 13 12 11 10 11 11 11 10 10 9 8 8
4 4 1 2 5 11 5 6 3 5 4 5 3 9 5 6 9 16 14 15 16 15 16 15 13 13 13 11 13 13 12 14 13 12 11 12 11 11 10 10 9 8 8 7
2 3 6 11 3 4 10 12 13 6 7 6 2 14 2 3 4 11 14 14 14 15 16 15 16 16 14 14 14 14 13 13 12 12 12 12 11 11 11 10 9 8 8 6
7 4 3 4 1 2 8 11 19 17 4 12 6 13 2 5 4 5 12 12 14 14 15 14 14 15 15 15 15 14 14 13 13 13 13 12 11 11 11 10 10 9 8 7
8 6 10 12 5 5 6 8 17 20 9 8 17 19 5 2 3 4 6 11 14 14 17 16 16 16 15 14 14 15 14 13 13 13 13 13 12 12 11 10 9 9 8 7
10 10 11 18 12 5 6 6 17 21 22 11 20 18 23 6 9 11 13 12 14 17 18 18 17 16 16 15 15 14 14 14 14 14 13 12 11 11 11 10 9 8 8 7
4 9 10 19 15 14 17 14 16 19 23 20 26 26 12 2 6 6 11 12 16 17 19 18 18 18 19 19 18 18 17 16 15 14 13 12 12 12 11 10 10 9 8 7
8 6 7 16 7 10 13 27 23 20 20 19 21 31 12 11 11 13 11 14 15 15 16 18 20 19 18 19 18 18 16 15 15 14 13 14 13 12 11 10 10 9 8 7
6 4 3 3 4 8 8 5 16 22 25 23 21 18 7 15 17 9 13 18 17 16 16 16 15 16 16 16 16 16 16 16 15 15 14 13 13 12 10 10 9 8 7 7
3 4 4 5 7 4 6 6 9 10 13 17 22 24 8 3 2 5 12 13 19 19 18 17 16 16 16 19 19 18 18 18 16 15 14 14 13 12 12 11 10 7 6 5
5 2 3 2 3 8 7 3 5 5 7 4 9 15 10 7 5 6 9 9 11 14 14 16 19 19 20 19 19 19 20 20 20 19 18 15 14 13 13 11 10 5 4 5
4 4 12 11 7 6 6 5 0 5 8 3 1 3 5 5 3 3 3 4 3 4 8 8 13 16 18 16 17 19 18 20 18 15 14 13 12 12 11 10 6 7 6 6
10 9 6 5 5 9 7 5 10 5 1 1 2 3 7 6 4 3 4 5 5 6 4 6 7 8 10 14 17 16 18 13 13 14 15 14 13 9 8 10 6 7 7 6
4 7 7 9 6 4 5 3 2 4 3 0 1 1 5 6 4 5 4 4 4 5 6 5 10 10 8 13 16 16 12 13 14 14 13 12 10 9 9 10 9 6 6 5
3 3 3 3 3 3 5 6 1 4 3 3 3 1 4 5 6 5 5 5 5 5 5 4 7 8 6 5 7 10 12 12 13 13 12 9 11 8 7 6 7 7 7 6
4 5 5 4 5 4 7 9 6 6 4 4 3 2 5 6 4 6 6 6 6 6 4 6 7 8 9 7 7 9 11 13 13 11 10 10 8 10 9 7 8 8 5 8
5 7 6 6 6 4 4 2 6 7 6 6 6 2 3 4 7 5 6 6 6 7 5 5 4 5 6 7 7 8 10 13 13 11 9 9 9 8 7 7 4 14 12 17
Wind_Direction
220 138 200 211 195 203 182 210 239 266 250 162 220 235 230 211 212 211 215 200 187 172 158 136 127 128 123 117 120 124 120 118 121 125 114 96 105 93 79 73 69 72 77 72
101 234 227 179 198 216 231 247 263 299 209 182 255 245 242 199 218 209 212 202 181 152 153 145 138 145 149 140 134 129 127 127 130 114 115 111 107 93 90 82 68 66 70 77
186 215 203 198 221 203 215 219 229 238 301 246 298 262 241 244 217 217 229 201 176 167 155 150 149 153 148 150 146 140 136 127 115 116 118 109 105 94 96 82 78 65 74 75
237 230 219 164 207 190 240 211 224 245 274 253 160 288 226 228 237 214 226 181 169 163 154 151 149 154 159 152 147 140 135 130 132 135 132 126 122 120 108 102 98 81 74 77
230 190 201 220 196 174 226 92 172 208 221 289 213 304 98 209 241 243 221 171 160 161 153 156 154 154 156 149 148 139 138 140 139 137 131 128 118 117 114 107 101 91 80 75
239 350 183 189 90 167 149 76 37 34 72 261 173 189 281 237 225 246 167 158 155 155 151 146 141 145 145 141 145 150 147 136 133 130 133 130 130 131 125 121 111 105 96 85
298 239 213 148 98 37 120 97 307 314 308 248 187 212 247 302 283 223 180 169 163 156 152 149 149 153 148 147 144 137 138 137 134 130 130 132 132 128 127 130 127 124 111 98
188 300 175 192 192 184 190 164 164 221 216 277 317 240 248 262 323 272 172 165 152 156 153 153 150 153 156 154 151 143 138 132 129 129 123 122 125 127 125 127 124 116 116 112
195 254 43 148 120 153 202 207 184 96 111 302 220 283 295 240 21 100 139 151 163 155 155 152 149 148 155 153 154 147 137 130 131 130 127 123 122 123 124 118 113 115 116 114
183 288 16 307 91 334 160 164 126 100 218 230 265 253 240 246 220 190 170 168 163 155 156 157 157 155 159 159 150 141 140 139 135 129 129 127 126 124 123 123 121 118 108 104
152 139 226 48 210 180 164 203 182 144 189 208 290 257 207 265 191 193 188 177 172 165 164 163 164 161 161 153 152 146 143 143 141 137 134 131 130 128 123 121 120 118 112 111
209 93 232 225 229 283 249 207 194 189 207 231 146 260 183 301 226 176 180 179 174 168 169 167 164 165 164 161 156 153 150 149 148 140 137 136 131 128 126 126 124 123 121 119
156 177 269 271 304 257 224 212 214 224 52 217 178 262 8 34 90 168 167 172 171 167 167 166 167 172 172 166 163 159 158 155 151 147 143 140 139 137 134 133 133 133 133 128
140 162 193 229 199 134 189 208 217 211 222 206 226 252 290 291 217 180 186 174 174 174 173 171 175 174 174 173 167 165 162 159 154 149 148 149 151 148 146 141 138 138 132 128
160 223 207 244 239 191 202 205 218 219 230 217 250 242 254 221 216 209 186 167 177 183 186 183 180 175 172 171 171 169 167 162 158 157 157 158 149 145 142 141 142 139 140 137
197 226 182 247 238 243 246 238 224 222 231 241 252 260 264 234 116 147 187 199 191 191 189 186 182 181 179 176 177 174 172 168 163 162 162 155 152 150 151 148 148 144 141 136
171 192 176 252 182 215 240 233 230 230 229 222 232 240 253 228 208 193 185 184 198 199 196 194 189 187 187 183 178 179 171 162 166 163 161 162 158 155 158 154 151 155 152 139
169 171 196 194 110 226 232 167 217 225 236 232 244 255 224 231 233 211 180 185 189 190 194 197 191 189 186 178 179 172 169 169 167 169 166 163 158 158 156 157 164 151 148 162
193 167 221 206 208 333 279 189 171 173 248 226 230 245 224 201 70 287 200 195 192 182 181 195 188 189 180 180 176 167 168 170 169 171 170 167 164 160 162 171 169 163 149 157
124 355 202 160 230 209 248 283 199 129 287 236 204 221 170 153 194 234 179 174 186 183 186 183 185 183 180 179 171 166 172 173 178 175 174 169 166 168 174 175 168 149 146 160
143 178 223 233 238 269 231 166 246 92 245 330 320 175 121 190 211 226 88 59 93 154 174 152 162 176 180 165 162 172 171 185 179 165 158 161 167 172 173 164 155 152 150 149
172 171 200 208 216 246 156 89 161 206 323 354 331 173 155 144 126 91 68 94 100 107 76 125 129 140 150 159 164 169 181 168 151 155 159 165 171 170 163 160 146 150 156 149
236 191 183 183 213 279 249 219 180 148 167 319 359 5 153 141 166 150 138 123 120 118 114 109 134 130 148 163 170 169 166 149 152 157 167 167 160 163 158 161 157 153 163 154
267 190 172 79 241 234 267 268 230 211 174 96 58 137 148 146 156 155 158 166 153 142 135 105 120 137 139 141 150 160 149 147 153 163 165 158 165 158 157 159 164 174 172 182
189 130 160 279 274 298 250 235 206 200 168 124 105 161 194 158 182 173 171 173 174 161 143 152 158 166 170 158 146 146 150 152 161 161 163 167 171 176 171 186 185 190 189 187
184 172 176 216 208 180 232 244 195 196 183 182 168 174 212 175 179 156 173 178 172 173 157 165 166 145 164 166 158 156 159 164 158 162 168 176 173 176 179 183 191 218 212 217